Weather History for Moab, UT

Change the Weather History Date:

Thursday, December 12, 2013

  Actual Average Record
Temperature  
Mean Temperature 3 °F 27 °F  
Max Temperature 14 °F 38 °F 68 °F (1929)
Min Temperature -9 °F 17 °F -9 °F (2013)
Degree Days  
Heating Degree Days 62 38  
Month to date heating degree days 618 433  
Since 1 July heating degree days 1874 1642  
Cooling Degree Days 0 0  
Month to date cooling degree days 0 0  
Year to date cooling degree days 1643 1289  
Moisture  
Dew Point -1 °F    
Average Humidity 87    
Maximum Humidity 100    
Minimum Humidity 73    
Precipitation  
Precipitation 0.00 in 0.01 in 0.33 in (1940)
Month to date precipitation 0.62 0.19  
Year to date precipitation 7.37 8.39  
Sea Level Pressure  
Sea Level Pressure 30.71 in    
Wind  
Wind Speed 2 mph (NW)    
Max Wind Speed 9 mph    
Max Gust Speed 10 mph    
Visibility 10 miles    
Events      
T = Trace of Precipitation, MM = Missing Value Source: NWS Daily Summary

Daily Weather History Graph

Daily Weather History Graph

Search for Another Location

Airport:

Trip Planner

Search our weather history database for the weather conditions in past years. The results will help you decide how hot, cold, wet, or windy it might be!

Date:

Astronomy

Dec. 12, 2013 Rise Set
Actual Time 7:28 AM MST 4:57 PM MST
Civil Twilight 6:58 AM MST 5:27 PM MST
Nautical Twilight 6:24 AM MST 6:00 PM MST
Astronomical Twilight 5:52 AM MST 6:33 PM MST
Moon 2:04 PM MST (12/12) 2:56 AM MST (12/12)
Length of Visible Light 10h 29m
Length of Day
9h 29m
Waxing Gibbous, 81% of the Moon is Illuminated
Dec 12
Waxing Gibbous
Dec 17
Full
Dec 25
Last Quarter
Jan 1
New
Jan 7
First Quarter

Hourly Weather History & Observations

Time (MST) Temp. Windchill Dew Point Humidity Pressure Visibility Wind Dir Wind Speed Gust Speed Precip Events Conditions
12:53 AM -6.0 °F - -9.0 °F 87% 30.84 in 10.0 mi Calm Calm - N/A   Clear
1:53 AM -6.0 °F - -8.0 °F 91% 30.84 in 10.0 mi Calm Calm - N/A   Clear
2:53 AM -4.0 °F - -8.0 °F 83% 30.83 in 10.0 mi Calm Calm - N/A   Clear
3:53 AM -7.1 °F - -9.0 °F 91% 30.85 in 10.0 mi Calm Calm - N/A   Clear
4:53 AM -4.0 °F -14.6 °F -6.0 °F 91% 30.84 in 10.0 mi NE 4.6 mph - N/A   Clear
5:53 AM -2.9 °F -16.5 °F -6.0 °F 87% 30.84 in 10.0 mi West 6.9 mph - N/A   Clear
6:53 AM -0.9 °F - -4.0 °F 87% 30.86 in 10.0 mi Calm Calm - N/A   Clear
7:53 AM -4.0 °F - -6.0 °F 91% 30.85 in 10.0 mi Calm Calm - N/A   Clear
8:53 AM -2.0 °F -10.1 °F -2.0 °F 100% 30.85 in 10.0 mi WSW 3.5 mph - N/A   Clear
9:53 AM 3.9 °F - 3.0 °F 96% 30.83 in 10.0 mi Calm Calm - N/A   Clear
10:53 AM 6.1 °F -0.9 °F 3.0 °F 87% 30.79 in 10.0 mi NW 3.5 mph - N/A   Clear
11:53 AM 8.1 °F -0.5 °F 3.0 °F 80% 30.74 in 10.0 mi NW 4.6 mph - N/A   Clear
12:53 PM 12.0 °F 1.5 °F 6.1 °F 77% 30.71 in 10.0 mi NNW 6.9 mph - N/A   Clear
1:53 PM 12.9 °F 0.7 °F 6.1 °F 74% 30.66 in 10.0 mi NNW 9.2 mph - N/A   Clear
2:53 PM 14.0 °F - 7.0 °F 74% 30.62 in 10.0 mi Calm Calm - N/A   Clear
3:53 PM 12.0 °F 4.1 °F 6.1 °F 77% 30.61 in 10.0 mi NNW 4.6 mph - N/A   Clear
4:53 PM 9.0 °F -2.2 °F 3.9 °F 80% 30.61 in 10.0 mi NNW 6.9 mph - N/A   Clear
5:53 PM 5.0 °F - 1.0 °F 84% 30.59 in 10.0 mi Calm Calm - N/A   Clear
6:53 PM 1.9 °F -5.6 °F -0.9 °F 88% 30.57 in 10.0 mi WSW 3.5 mph - N/A   Clear
7:53 PM 1.9 °F - -0.9 °F 88% 30.58 in 10.0 mi Calm Calm - N/A   Clear
8:53 PM 3.0 °F -4.4 °F 1.0 °F 91% 30.55 in 10.0 mi West 3.5 mph - N/A   Clear
9:53 PM 1.9 °F - -0.9 °F 88% 30.52 in 10.0 mi Calm Calm - N/A   Clear
10:53 PM -2.0 °F - -5.1 °F 87% 30.51 in 10.0 mi Calm Calm - N/A   Clear
11:53 PM -0.0 °F - -2.0 °F 91% 30.47 in 10.0 mi Calm Calm - N/A   Clear